STARLINK-2534, 48311

Orbit data source: Space-Track

STARLINK-2534, 48311 is a payload satellite owned by SpaceX/Seattle (US) in LEO that was launched on Thu, 29 Apr 2021 UTC via an FALCON 9 launch vehicle from the Air Force Eastern Test Range (AFETR). Payload-class satellites include a variety of spacecraft equipped with specific instruments for various scientific and technological missions. These include communications satellites like Starlink; space stations such as the ISS; scientific satellites like the Hubble; Earth observation satellites from companies like Planet Labs, Umbra, and HawkEye 360; GPS; miniature CubeSats for education and research; and military/defense satellites.

Loading next visibility...
Identifier
48311, 2021-036AM
Orbit
LEO
Country
Flag of USUS
Related business
Manufacturer
SpaceX/Seattle
Mission
Operational Commercial Communications
Bus & Motor
STARLINK, Unknown motor
Mass
260 kg wet, ~248 kg dry
Launch date (UTC)
2021-04-29 (4 years ago)
Launch vehicle
FALCON 9
Launch site
Air Force Eastern Test Range (AFETR)
Object type
Payload
Rocket body
Debris
Shape & HBR
Box + 1 Pan, 4.4 m
Radar Cross Section
13.562 m², Large (>1 m²)

Expand to show TLE details & history
Last TLE update: 13 hours ago

TLE from 13 hours ago
0 STARLINK-2534
1 48311U 21036AM  25260.92240973  .00005990  00000-0  42076-3 0  9995
2 48311  53.0531 147.2014 0001343  99.8506 260.2635 15.06393282242138
Epoch: 2025-09-17T22:08Z
TLE epoch observation values (Epoch: 2025-09-17T22:08:16.2Z)
Latitude
-0°
Longitude
178.04249°
Altitude
548.269 km
Speed
7.589 km/s
True Right ascension
09h 48m 48s
True Declination
0° 00' 00"
Sunlit
Object was in daylight at epoch
Visualization orbit readout
Latitude
Unknown
Longitude
Unknown
Altitude
Unknown
Speed
Unknown
Apparent Right ascension
Unknown
Apparent Declination
Unknown
Sunlit
N/A
Visualization observer readout
Local Sidereal Time
03:40:24
Azimuth
Unknown
Elevation
Unknown
Doppler factor
Unknown
Orbital elements
Apogee altitude
548.433 km
Perigee altitude
546.573 km
Semi-major axis
6,925.64 km
Eccentricity
0.00013
Inclination
53.0531°
RAAN
147.2014°
Arg. of periapsis
99.8506°
True anomaly
260.24833°
Mean anomaly
260.2635°
Eccentric anomaly
260.25592°
Mean motion
3.76577 °/min
Orbital period
95.6 mins
BSTAR
0.00042076
Loading maneuver chart data...
Computing Atmospheric mass density...
Loading historical data...
Loading historical data...
Loading historical data...
Loading historical data...
Loading historical data...
Loading historical data...
Loading historical data...

Documentation

Showing up to 5 results
|